Location: ????????
(55.7667°N, 37.4833°E)
Time: 14:17:01
(UTC+00:00)

SL-24 R/B - RUBIN 2 - Pass Details

Date: 19 May 2025
Orbit: 587 x 1000 km, 64.6° (Epoch: 21 June)

Event Time Altitude Azimuth Distance (km) Brightness Sun altitude
Exits shadow 22:37:03 10° 234° (SW) 2,685 6.3 -12.8°
Reaches altitude 10° 22:37:09 10° 234° (SW) 2,654 6.3 -12.8°
Maximum altitude 22:43:22 78° 321° (NW) 902 4.4 -12.5°
Drops below altitude 10° 22:48:58 10° 49° (NE) 2,397 7.6 -12.3°
Sets 22:51:17 0° 51° (NE) 3,266 8.4 -12.2°
